Retour au catalogue

STARLINK-36870

ActifCommunicationsSSO
NORAD 67897·PAYLOAD·🇺🇸 United States

Lancé Feb 21, 2026 depuis Vandenberg Space Force Base

Loading…

Prochains Passages (prochaines 24 heures)

TLE

FraisSource: CelesTrak SupGP

Époque: Sep 14, 2026, 22:48 UTC

1 67897C 26035U   26257.95048611 -.00039905  00000+0 -12392-2 0  2572
2 67897  97.2845 189.9028 0001765  94.1909 281.2565 15.33448047    11

Suivez STARLINK-36870 en temps réel avec AllMySat

Download on the App Store